Overview Statistics Trail Chart Weather Telemetry Raw packets
 

This is the latest recevied weather packets stored in our database for station/object MeshWX-1. If no packets are shown the sender has not sent any weather packets the latest 10 day(s).

<< 33 34 35 36 37 38 39 >>
Time Temp. Humidity Pressure Rain* Wind** Luminosity Snow
1787863753 23.89° C 46% 999.6 hPa - - - -
1787862156 25.56° C 44% 999.1 hPa - - - -
1787861719 25.56° C 44% 999.1 hPa - - - -
1787861433 25.56° C 43% 998.8 hPa - - - -
1787860178 25.56° C 43% 998.8 hPa - - - -
1787860116 25.56° C 43% 998.8 hPa - - - -
1787859685 25.56° C 43% 998.8 hPa - - - -
1787858138 26.11° C 44% 998.4 hPa - - - -
1787857670 26.11° C 44% 998.4 hPa - - - -
1787857437 26.11° C 37% 998.1 hPa - - - -
1787856036 26.11° C 37% 998.1 hPa - - - -
1787855634 26.11° C 37% 998.1 hPa - - - -
1787853936 27.78° C 34% 997.9 hPa - - - -
1787853564 27.78° C 34% 997.9 hPa - - - -
1787853364 30° C 30% 997.8 hPa - - - -
1787851776 30° C 30% 997.8 hPa - - - -
1787851476 30° C 30% 997.8 hPa - - - -
1787849676 33.33° C 25% 997.7 hPa - - - -
1787849388 33.33° C 25% 997.7 hPa - - - -
1787849222 35.56° C 22% 997.8 hPa - - - -
1787847575 35.56° C 22% 997.8 hPa - - - -
1787847336 35.56° C 22% 997.8 hPa - - - -
1787845475 38.33° C 21% 998 hPa - - - -
1787845247 38.33° C 21% 998 hPa - - - -
1787845115 38.33° C 20% 998.1 hPa - - - -

* Rain since midnight (hover to see other rain measurements)
** Current wind speed in m/s (hover to see current wind gust speed)